{"data":{"norad_id":66705,"intl_designator":"2025-276AR","name":"FLOCK 4H-2","alt_names":[],"object_type":"PAYLOAD","status":"ACTIVE","operator":null,"country":"US","launch_date":"2025-11-28","launch_site_code":"AFWTR","launch_vehicle":null,"mission":null,"orbit_class":"UNKNOWN","rcs_meters":null,"size_class":null,"mass_kg":null,"dimensions":null,"purposes":["earth_obs"],"wikipedia_slug":null,"has_3d_model":false,"image_url":null,"decayed_at":null,"tle_current":{"epoch":"2026-05-25T03:04:48.086112Z","epoch_age_seconds":78110,"freshness":"FRESH","line1":"1 66705U 25276AR  26145.12833433  .00005487  00000+0  25411-3 0  9990","line2":"2 66705  97.4178 219.2137 0002561  75.3601 284.7918 15.20507737 26939","mean_motion":15.20507737,"eccentricity":0.0002561,"inclination_deg":97.4178,"raan_deg":219.2137,"arg_perigee_deg":75.3601,"mean_anomaly_deg":284.7918,"bstar":0.00025411,"rev_number":2693,"period_min":94.705207014675,"perigee_km":502.54544172769,"apogee_km":506.07063007508,"semimajor_km":6882.4450359014,"source":"CELESTRAK","updated_at":"2026-05-25T13:38:13.345447Z"}}}